TELSTAR 18V

Last updated on Tue Sep 16 2025 00:02:49 GMT+0000 (Coordinated Universal Time)

1 43611U 18069A 25258.32643583 -.00000309 00000+0 00000+0 0 9996 2 43611 0.0314 263.1707 0001807 277.2340 69.6662 1.00273115 25879
UTC large
Height (km)
Speed (km/s)
/
Latitude / Longitude
Inclination (degrees)
Orbital Period (minutes)
Azimuth
Elevation
Range (km)
Doppler Factor

Next 0 passes for location: London (51.5072 / 0.1276)

Sorry there are no passes over London.